SCP
0 0 0 0 0 0 0 0 0 0 0 0 0 0 0 0 0 0 0 0 0 0 0 0 0 0 0 0 0 0 0 0 0 0 0 0 0 0
0 0 0 0 0 0 0 0 0 0 0 0 0 0 0 0 0 0 0 0 0 0 0 0 0 0 0 0 0 0 0 0 0 0 0 0 0 0
0 0 0 0 0 0 0 0 0 0 0 0 0 0 0 0 0 0 0 0 0 0 0 0 0 0 0 0 0 0 0 0 0 0 0 0 0 0
0 0 0 0 0 0 0 0 0 0 0 0 0 0 0 0 0 0 0 0 0 0 0 0 0 0 0 0 0 0 0 0 0 0 0 0 0 0
0 0 0 0 0 0 0 0 0 0 0 0 0 0 0 0 0 0 0 0 0 0 0 0 0 0 0 0 0 0 0 0 0 0 0 0 0 0
0 0 0 0 0 0 0 0 0 0 0 0 0 0 0 0 0 0 0 0 0 0 0 0 0 0 0 0 0 0 0 0 0 0 0 0 0 0
0 0 0 0 0 0 0 0 0 0 0 0 0 0 0 0 0 0 0 0 0 0 0 0 0 0 0 0 0 0 0 0 0 0 0 0 0 0
0 0 0 0 0 0 0 0 0 0 0 0 0 0 0 0 0 0 0 0 0 0 0 0 0 0 0 0 0 0 0 0 0 0 0 0 0 0
0 0 0 0 0 0 0 0 0 0 0 0 0 0 0 0 0 0 0 0 0 0 0 0 0 0 0 0 0 0 0 0 0 0 0 0 0 0
0 0 0 0 0 0 0 0 0 0 0 0 0 0 0 0 0 0 0 0 0 0 0 0 0 0 0 0 0 0 0 0 0 0 0 0 0 0
0 0 0 0 0 0 0 0 0 0 0 0 0 0 0 0 0 0 0 0 0 0 0 0 0 0 0 0 0 0 0 0 0 0 0 0 0 0
0 0 0 0 0 0 0 0 0 0 0 0 0 0 0 0 0 0 0 0 0 0 0 0 0 0 0 0 0 0 0 0 0 0 0 0 0 0
-0 0 0 0 0 0 0 0 0 0 0 0 0 0 0 0 0 0 0 0 0 0 0 0 0 0 0 0 0 0 0 0 0 0 0 0 0 0
0 0 0 0 0 0 0 0 0 0 0 0 0 0 0 0 0 0 0 0 0 0 0 0 0 0 0 0 0 0 0 0 0 0 0 0 0 0
0 0 0 0 0 0 0 0 0 0 0 0 0 0 0 0 0 0 0 0 0 0 0 0 0 0 0 0 0 0 0 0 0 0 0 0 0 0
0 0 0 0 0 0 0 0 0 0 0 0 0 0 0 0 0 0 0 0 0 0 0 0 0 0 0 0 0 0 0 0 0 0 0 0 0 0
0 0 0 0 0 0 0 0 0 0 0 0 0 0 0 0 0 0 0 0 0 0 0 0 0 0 0 0 0 0 0 0 0 0 0 0 0 0
0 0 0 0 0 0 0 0 0 0 0 0 0 0 0 0 0 0 0 0 0 0 0 0 0 0 0 0 0 0 0 0 0 0 0 0 0 0
0 0 0 0 0 0 0 0 0 0 0 0 0 0 0 0 0 0 0 0 0 0 0 0 0 0 0 0 0 0 0 0 0 0 0 0 0 0
0 0 0 0 0 0 0 0 0 0 0 0 0 0 0 0 0 0 0 0 0 0 0 0 0 0 0 0 0 0 0 0 0 0 0 0 0 0
0 0 0 0 0 0 0 0 0 0 0 0 0 0 0 0 0 0 0 0 0 0 0 0 0 0 0 0 0 0 0 0 0 0 0 0 0 0
0 0 0 0 0 0 0 0 0 0 0 0 0 0 0 0 0 0 0 0 0 0 0 0 0 0 0 0 0 0 0 0 0 0 0 0 0 0
0 0 0 0 0 0 0 0 0 0 0 0 0 0 0 0 0 0 0 0 0 0 0 0 0 0 0 0 0 0 0 0 0 0 0 0 0 0
Wind_Speed
2 3 2 2 2 2 2 3 3 2 3 3 3 3 3 3 4 4 4 8 10 10 10 11 11 11 12 13 13 12 12 12 12 13 13 14 14 14
2 3 3 3 2 2 2 2 3 4 3 3 3 3 3 3 4 4 5 7 9 10 10 10 11 11 11 11 12 13 13 13 13 14 15 15 15 15
2 3 3 3 2 2 1 1 2 2 3 4 2 2 2 2 3 2 3 3 4 8 9 9 10 10 10 10 11 13 13 13 14 14 15 15 15 15
3 2 3 2 2 2 2 2 2 2 3 4 3 2 2 3 2 2 2 3 3 6 8 9 10 10 10 10 10 11 13 13 14 14 15 15 15 15
3 3 3 2 3 2 2 2 2 2 2 2 3 2 2 2 1 2 2 2 3 4 6 7 9 10 11 11 11 11 11 13 13 13 14 14 14 14
3 3 3 3 4 3 2 3 2 2 2 2 3 3 2 2 0 1 2 2 3 3 4 4 7 9 10 10 11 11 11 11 13 13 13 13 13 13
3 3 3 3 4 3 2 3 3 2 2 2 3 2 2 1 2 2 2 2 3 2 2 3 3 3 5 8 10 11 11 11 11 12 12 13 13 13
3 3 3 3 3 3 3 4 4 3 3 3 2 3 4 4 3 2 1 1 3 2 1 3 2 3 4 4 8 11 11 11 11 11 12 12 12 12
2 2 2 2 2 2 2 3 4 5 5 4 3 4 4 4 3 3 3 3 4 3 1 4 3 4 4 4 8 9 9 10 10 10 11 11 12 12
2 3 3 2 2 2 2 2 3 2 3 3 4 5 4 4 4 4 4 3 3 3 2 3 3 3 4 3 6 8 9 9 9 10 10 10 11 11
2 2 2 2 3 2 1 2 3 3 3 3 4 4 5 5 3 1 1 1 2 3 2 2 2 2 2 3 4 6 7 8 8 9 10 10 10 9
2 2 3 3 3 2 2 2 2 3 2 2 3 3 3 4 4 3 3 3 2 3 2 2 2 1 2 2 2 2 2 5 7 8 9 9 9 5
2 2 3 3 2 2 2 2 4 3 1 1 2 3 2 2 3 3 3 4 3 4 3 2 2 2 2 2 2 2 2 2 2 3 6 7 7 7
2 2 3 3 2 2 1 2 2 1 0 1 2 2 2 3 3 3 4 4 5 6 5 3 3 3 2 2 2 2 2 2 2 2 2 3 5 7
2 3 4 3 2 1 2 2 1 0 0 1 2 3 3 3 3 2 3 3 3 4 3 3 4 3 3 3 3 2 2 2 2 2 2 2 3 3
2 3 4 3 2 2 2 2 1 1 1 2 2 3 2 2 2 2 2 2 2 3 3 2 3 3 3 3 3 3 3 2 1 2 2 2 2 2
1 2 2 2 2 2 2 2 2 1 1 1 1 2 2 2 2 2 1 1 1 2 3 3 1 1 3 3 2 3 2 2 2 2 2 2 2 2
2 1 1 1 2 2 2 2 1 1 2 1 1 1 2 2 2 2 1 1 2 2 2 2 2 1 1 1 2 3 2 2 1 1 2 2 2 2
1 1 1 1 2 2 2 1 2 2 1 1 1 1 2 2 2 2 1 1 2 2 2 1 1 1 0 2 3 1 2 1 1 1 2 2 3 3
0 1 2 2 2 2 2 2 2 1 1 1 1 1 1 1 2 2 2 2 2 2 2 2 1 1 2 2 2 2 1 2 1 1 1 1 1 1
1 2 2 2 2 2 2 1 1 1 1 1 1 1 1 1 2 2 2 2 1 1 2 2 3 2 0 1 1 2 2 1 2 2 2 1 1 1
1 1 1 1 1 1 1 1 1 1 2 1 2 2 2 1 2 2 2 1 1 2 2 2 2 1 1 1 1 2 2 2 2 2 2 1 2 2
1 1 1 1 1 1 1 1 1 1 1 1 2 2 2 2 2 2 1 1 1 2 2 2 1 0 0 1 1 1 1 1 1 2 3 4 0 2
Wind_Direction
213 215 220 232 225 221 205 188 187 234 261 256 259 256 245 240 237 225 231 234 229 224 225 230 233 234 234 230 228 229 230 231 231 231 230 230 233 234
217 219 230 237 242 233 220 216 196 197 238 251 242 252 254 257 243 229 235 242 236 231 225 225 229 232 234 233 231 229 229 231 231 231 230 230 233 235
231 224 240 237 236 242 229 221 215 190 227 262 251 259 246 252 264 248 240 235 243 240 233 229 228 227 229 232 233 230 230 232 232 232 232 231 232 234
229 222 240 240 239 242 226 236 236 220 214 256 274 271 259 250 252 258 267 250 241 250 245 240 232 228 228 230 234 235 232 231 232 233 233 232 232 233
224 220 236 231 247 250 241 240 243 242 215 230 268 272 270 273 287 290 288 286 271 258 251 246 240 236 234 233 234 237 235 231 231 232 232 231 230 230
233 228 232 227 230 238 244 246 239 238 233 233 258 276 277 288 279 272 296 290 281 278 272 262 251 247 244 241 238 238 237 237 230 229 229 226 226 228
248 246 245 241 233 225 234 238 228 226 232 230 243 264 275 286 261 248 256 284 283 258 269 268 256 251 247 242 241 240 239 237 235 230 227 225 225 227
244 254 260 256 258 250 253 243 225 218 224 218 230 243 257 249 246 241 242 277 286 269 236 272 245 248 249 238 239 239 239 239 236 231 229 227 225 225
241 249 264 277 266 249 268 279 267 256 233 207 215 237 241 240 230 243 238 233 247 254 235 268 256 254 254 252 240 234 234 237 236 232 230 228 226 226
246 228 232 265 260 238 240 271 277 268 244 219 222 238 242 241 219 222 232 249 269 268 201 248 261 256 266 259 252 241 241 239 237 234 233 232 230 229
292 276 246 253 267 245 210 257 287 288 285 253 247 254 261 266 252 209 218 213 276 283 230 211 252 265 268 262 257 246 244 244 241 238 236 233 229 227
317 309 293 272 272 248 201 210 263 277 292 319 313 299 282 277 266 215 204 204 232 271 247 199 233 227 282 270 261 262 253 254 251 244 238 235 226 215
302 305 301 301 283 250 209 209 238 255 275 293 298 301 298 284 271 244 215 201 211 244 242 193 217 207 215 266 284 251 231 242 248 246 239 232 218 197
268 277 285 298 298 295 264 260 267 299 306 311 307 296 290 283 274 261 245 232 225 234 243 200 205 208 208 231 261 277 264 238 222 229 228 216 213 207
267 293 309 319 320 320 311 310 318 34 257 292 279 274 269 270 281 287 288 276 269 263 254 223 213 217 206 219 232 245 269 270 224 211 205 196 194 186
305 321 328 338 349 320 315 316 294 232 213 243 267 276 290 301 299 294 298 309 315 307 292 256 225 200 212 227 221 238 229 227 226 207 199 209 203 193
327 6 9 5 354 340 331 314 305 306 277 271 273 296 305 306 300 301 290 305 305 304 315 320 295 210 207 208 224 233 225 221 219 205 183 201 229 220
96 36 332 322 309 301 302 304 298 285 275 268 283 285 288 294 302 311 305 290 291 289 289 301 331 5 2 304 226 215 219 234 238 213 187 196 249 251
88 298 296 295 292 288 281 276 277 285 283 286 286 292 300 307 311 310 307 308 299 290 288 287 278 172 237 292 303 250 195 218 213 221 210 204 227 241
253 265 274 278 278 280 281 277 282 305 311 307 306 304 301 303 309 309 302 295 292 298 314 317 268 208 209 228 259 299 262 201 203 223 231 210 250 267
261 264 262 264 273 277 275 276 278 281 298 299 298 297 294 294 293 291 292 301 296 300 296 287 273 274 240 102 0 311 311 291 199 197 201 189 247 302
267 265 269 281 288 292 294 300 312 317 327 320 309 308 305 293 281 284 282 287 287 275 277 281 294 353 99 166 238 275 302 329 2 28 24 182 182 199
260 268 275 281 283 293 293 288 291 290 295 302 299 303 308 303 289 283 281 278 291 296 301 311 339 21 210 199 221 256 270 324 352 15 1 2 58 192